Location: Peterborough
(44.3091°N, 78.3197°W)
Time: 17:44:17
(UTC-04:00)

Transit 4A - Pass Details

Date: 26 March 2023
Orbit: 864 x 980 km, 66.8° (Epoch: 04 June)

Event Time Altitude Azimuth Distance (km) Brightness Sun altitude
Rises 14:24:20 0° 333° (NNW) 3,545 10.7 45.6°
Reaches altitude 10° 14:27:21 10° 347° (NNW) 2,621 10.0 45.4°
Maximum altitude 14:32:14 24° 40° (NE) 1,828 9.3 45.0°
Drops below altitude 10° 14:37:12 10° 93° (E) 2,677 10.2 44.6°
Sets 14:40:18 0° 107° (ESE) 3,637 10.9 44.3°
